EHI
0 0 0 0 0 0 0 0 0 0 0 0 1 3 7 9 10 12 13 12 10 9 9 10 13 14 9 6 6 5 3 2 1 1 0 0 0 0 0 0 0 0 0 0
0 0 0 0 0 0 0 0 0 0 0 0 1 2 5 7 7 8 10 9 7 7 8 10 13 14 11 7 6 4 3 2 1 1 0 0 0 0 0 0 0 0 0 0
0 0 0 0 0 0 0 0 0 0 0 0 0 1 2 3 3 4 5 4 4 4 6 8 11 12 12 9 5 3 3 2 1 0 0 0 0 0 0 0 0 0 0 0
0 0 0 0 0 0 0 0 0 0 0 0 0 0 0 1 1 1 2 2 3 3 4 5 7 9 9 8 6 4 3 1 0 0 0 0 0 0 0 0 0 0 0 0
0 0 0 0 0 0 0 0 0 0 0 0 0 0 0 0 0 0 1 2 3 2 2 2 3 4 6 7 7 6 5 1 0 0 0 0 0 0 0 0 0 0 0 0
0 0 0 0 0 0 0 0 0 0 0 0 0 0 0 0 0 0 1 3 3 3 2 2 2 3 4 5 6 7 5 2 0 0 0 0 0 0 0 0 0 0 0 0
0 0 0 0 0 0 0 0 0 0 0 0 0 0 0 0 0 0 1 2 3 3 3 3 4 4 3 3 4 5 4 2 0 0 0 0 0 0 0 0 0 0 0 0
0 0 0 0 0 0 0 0 0 0 0 0 0 0 0 0 0 0 0 1 1 2 2 3 4 4 3 3 4 5 4 2 1 0 0 0 0 0 0 0 0 0 0 0
0 0 0 0 0 0 0 0 0 0 0 0 0 0 0 0 0 0 0 0 0 0 1 1 1 2 2 4 6 6 4 3 1 0 0 0 0 0 0 0 0 0 0 0
0 0 0 0 0 0 0 0 0 0 0 0 0 0 0 0 0 0 0 0 0 0 0 0 0 0 1 2 5 6 5 4 1 0 0 0 0 0 0 0 0 0 0 0
0 0 0 0 0 0 0 0 0 0 0 0 0 0 0 0 0 0 0 0 0 0 0 0 0 0 0 0 2 4 5 3 1 0 0 0 0 0 0 0 0 0 0 0
0 0 0 0 0 0 0 0 0 0 0 0 0 0 0 0 0 0 0 0 0 0 0 0 0 0 0 0 1 3 5 3 1 0 0 0 0 0 0 0 0 0 0 0
0 0 0 0 0 0 0 0 0 0 0 0 0 0 0 0 0 0 0 0 0 0 0 0 0 0 0 0 2 4 5 4 2 1 0 0 0 0 0 0 0 0 0 0
0 0 0 0 0 0 0 0 0 0 0 0 0 0 0 0 0 0 0 0 0 0 0 0 0 0 0 1 3 4 5 4 3 2 1 0 0 0 0 0 0 0 0 0
0 0 0 0 0 0 0 0 0 0 0 0 0 0 0 1 1 1 1 0 0 0 0 0 0 0 1 2 3 4 4 4 3 2 1 0 0 0 0 0 0 0 0 0
0 0 0 0 0 0 0 0 0 0 0 0 0 0 0 2 3 2 1 1 1 0 0 0 0 0 1 2 2 2 2 2 3 2 1 0 0 0 0 0 0 0 0 0
0 0 0 0 0 0 0 0 0 0 0 0 0 0 1 4 5 2 2 3 3 1 0 0 0 0 0 1 1 1 0 1 2 2 1 0 0 0 0 0 0 0 0 0
0 0 0 0 0 0 0 0 0 0 0 0 0 1 2 4 4 2 2 4 3 1 0 0 0 0 0 1 0 0 0 0 1 1 0 0 0 0 0 0 0 0 0 0
0 0 0 0 0 0 0 0 0 0 0 0 1 2 3 3 3 2 2 1 1 0 0 0 0 0 0 0 0 0 0 0 0 0 0 0 0 0 0 0 0 0 0 0
0 0 0 0 0 0 0 0 0 0 0 0 1 2 3 2 1 1 0 0 0 0 0 0 0 0 0 0 0 0 0 0 0 0 0 0 0 0 0 0 0 0 0 0
0 0 0 0 0 0 0 0 0 0 0 0 0 1 2 1 0 0 0 0 0 0 0 0 0 0 0 0 0 0 0 0 0 0 0 0 0 0 0 0 0 0 0 0
0 0 0 0 0 0 0 0 0 0 0 0 0 0 0 0 0 0 0 0 0 0 0 0 0 0 0 0 0 0 0 0 0 0 0 0 0 0 0 0 0 0 0 0
0 0 0 0 0 0 0 0 0 0 0 0 0 0 0 0 0 0 0 0 0 0 0 0 0 0 0 0 0 0 0 0 0 0 0 0 0 0 0 0 0 0 0 0
0 0 0 0 0 0 0 0 0 0 0 0 0 0 0 0 0 0 0 0 0 0 0 0 0 0 0 0 0 0 0 0 0 0 0 0 0 0 0 0 0 0 0 0
0 0 0 0 0 0 0 0 0 0 0 0 0 0 0 0 0 0 0 0 0 0 0 0 0 0 0 0 0 0 0 0 0 0 0 0 0 0 0 0 0 0 0 0
0 0 0 0 0 0 0 0 0 0 0 0 0 0 0 0 0 0 0 0 0 0 0 0 0 0 0 0 0 0 0 0 0 0 0 0 0 0 0 0 0 0 0 0
Wind_Speed
2 2 3 5 6 5 4 5 10 10 5 1 3 3 1 2 3 4 4 4 5 5 3 3 4 5 7 8 9 9 8 7 7 5 5 4 3 2 2 2 3 3 4 4
2 6 8 6 5 5 4 6 7 6 3 2 2 4 0 2 2 4 5 5 5 4 3 4 4 5 8 10 9 9 9 8 7 5 4 3 4 3 2 2 2 3 4 4
8 8 3 3 3 4 5 4 6 5 3 4 3 6 2 0 1 1 2 3 4 5 6 6 5 5 8 8 9 9 8 8 7 7 5 5 4 3 2 2 1 1 3 3
7 7 5 5 5 3 6 4 3 1 1 3 3 4 6 2 2 2 2 3 4 4 5 6 6 6 7 8 8 8 8 8 8 8 8 8 5 4 4 3 2 2 2 3
8 5 5 6 7 5 5 2 3 3 2 2 3 1 8 2 3 4 5 5 5 6 6 6 7 6 6 7 7 8 8 8 8 8 8 8 5 3 3 3 3 2 2 2
7 4 5 7 4 4 3 4 5 5 5 3 2 0 7 4 5 4 4 5 6 6 6 6 6 5 5 6 6 7 8 8 8 8 8 8 7 6 6 4 4 2 1 1
6 6 5 4 2 1 4 5 4 5 5 5 2 2 10 6 5 5 5 6 6 6 6 6 7 7 7 7 7 8 8 7 8 8 8 7 7 7 7 6 5 4 3 2
4 8 5 5 8 6 5 8 7 5 5 6 2 5 9 4 3 3 4 5 5 6 6 7 8 7 7 8 8 8 9 7 8 8 7 6 7 5 4 5 5 5 4 4
7 8 4 3 4 7 5 5 6 7 2 2 5 7 10 2 2 2 4 5 6 6 7 7 7 7 7 7 8 9 9 8 8 8 7 6 7 6 5 5 4 4 4 3
9 6 5 3 2 1 3 7 6 6 5 3 5 5 6 6 5 4 5 5 5 6 6 7 7 7 7 7 6 7 7 8 7 7 7 6 6 6 5 5 5 5 4 4
5 5 5 2 3 4 3 4 5 4 4 6 4 9 8 8 6 7 7 6 6 7 7 7 6 6 6 5 6 6 7 6 6 7 6 6 5 5 5 5 5 5 4 5
3 5 2 4 3 1 4 5 7 5 5 4 4 10 5 5 5 6 6 6 5 6 6 6 6 6 5 6 6 6 6 7 6 6 6 6 5 5 5 4 4 4 4 4
5 5 2 6 5 4 2 2 4 5 5 5 5 9 3 1 2 4 5 6 6 6 6 5 5 6 6 6 6 6 6 6 6 6 6 5 5 4 4 4 3 3 3 3
6 4 6 7 7 3 3 3 4 5 4 5 8 9 6 4 4 4 4 6 6 6 6 6 5 5 5 5 5 5 5 5 6 6 6 5 5 5 4 3 3 3 3 3
5 3 4 5 5 4 5 6 6 7 8 9 9 8 10 8 6 6 6 7 7 6 6 6 5 4 5 5 5 5 5 6 7 7 6 4 4 4 4 3 3 2 2 3
3 4 3 4 6 6 7 8 9 9 7 8 7 9 7 3 4 5 6 8 9 7 7 6 6 5 6 6 6 6 6 6 7 8 7 6 5 5 4 4 4 3 3 3
2 5 4 4 4 3 8 10 11 8 7 9 11 10 3 4 5 6 6 7 8 8 7 7 7 6 6 6 6 7 7 8 8 8 7 6 6 6 5 5 5 5 4 5
5 4 3 2 1 8 10 4 5 7 7 7 5 3 5 6 6 6 5 7 8 8 8 8 8 8 7 7 8 8 8 9 9 9 8 7 7 7 6 6 6 6 5 6
3 5 3 3 4 8 7 3 2 4 7 5 5 5 8 11 9 6 5 7 9 9 9 8 9 9 9 9 9 11 11 10 10 9 8 7 7 7 7 7 6 5 6 7
3 3 3 3 3 7 7 3 1 1 6 4 5 9 11 9 6 5 6 10 12 11 10 10 10 11 11 9 10 13 12 11 10 8 7 7 7 7 7 7 6 5 6 7
2 1 2 4 6 8 5 3 1 4 7 2 3 7 8 4 5 11 12 12 13 13 12 11 12 11 9 8 12 13 11 10 7 8 8 8 8 8 7 6 6 6 7 7
3 2 3 3 4 8 3 2 3 5 4 2 1 5 8 12 16 15 15 14 14 14 12 11 12 11 8 8 12 13 9 6 7 9 9 8 7 6 6 7 6 6 6 7
5 6 4 6 7 6 3 5 6 4 3 1 3 8 15 16 16 16 15 14 14 13 11 10 12 12 9 8 10 11 6 6 8 9 8 7 8 7 6 6 6 5 4 4
4 3 3 5 8 7 6 5 5 3 3 3 7 12 15 17 17 16 15 14 13 12 11 10 11 11 9 8 9 8 6 7 9 9 7 6 7 7 7 5 5 4 3 3
4 3 3 6 6 5 4 4 2 2 6 10 11 12 15 19 17 16 14 13 12 11 9 9 10 10 8 8 8 6 6 8 9 7 6 6 6 6 6 6 5 4 3 2
2 4 3 4 4 3 3 3 3 7 9 12 14 15 14 15 17 15 12 11 11 11 9 10 10 9 8 7 7 6 5 6 7 6 5 4 4 4 5 5 6 11 9 10
Wind_Direction
108 91 224 219 205 224 256 268 280 280 297 304 282 294 332 129 141 166 179 189 198 209 209 180 160 164 167 165 165 167 159 158 150 140 139 136 134 130 120 129 136 135 129 127
31 258 234 208 219 230 242 280 287 298 353 31 329 308 313 151 179 190 194 199 201 195 186 179 169 175 175 170 167 167 164 162 163 156 144 132 124 124 122 123 122 139 133 136
201 237 206 207 263 281 280 251 268 272 327 29 6 321 302 265 125 154 187 189 185 192 190 185 180 176 159 163 170 171 163 162 158 142 123 109 90 83 96 115 134 150 143 140
231 250 237 248 253 223 278 274 256 256 40 325 24 300 298 283 270 208 194 183 190 193 188 185 180 173 164 165 167 164 157 157 153 148 151 150 152 161 176 165 158 148 145 142
230 216 198 221 232 196 231 26 63 63 87 352 359 283 292 319 275 241 208 195 190 189 188 185 181 175 163 160 164 164 151 155 155 158 158 154 153 149 135 132 142 147 138 144
243 232 209 219 228 183 148 69 53 52 61 328 302 279 284 254 240 242 202 191 185 178 178 175 163 154 152 150 150 149 153 158 159 160 159 159 157 152 149 154 162 166 161 158
286 273 237 204 265 348 116 91 22 352 357 264 261 241 254 253 237 218 202 192 180 170 167 164 162 163 160 157 157 156 157 163 166 165 167 167 164 164 169 171 176 175 181 191
225 283 254 199 192 192 179 148 163 206 236 278 301 248 257 255 245 210 187 174 167 166 170 173 174 171 169 167 166 165 167 169 169 170 170 166 165 167 177 177 176 186 194 197
191 252 282 238 198 156 155 185 164 136 162 278 284 286 299 250 230 194 174 170 176 174 171 171 170 171 171 171 174 174 173 173 175 173 167 169 172 174 180 181 182 191 197 195
172 238 280 273 107 36 156 146 109 127 157 251 287 279 259 251 225 205 190 190 182 172 167 166 168 172 174 173 170 170 175 180 175 173 175 178 179 180 180 178 190 198 201 198
152 186 293 3 177 201 125 120 118 125 157 168 245 268 232 223 203 199 204 193 181 178 177 175 175 175 171 163 164 171 178 177 175 177 178 175 175 176 177 187 201 203 203 200
135 132 251 271 268 225 166 171 150 160 217 184 189 264 271 226 201 192 193 183 176 175 173 168 165 161 162 169 173 178 179 180 180 175 172 176 170 167 176 195 206 203 204 204
127 109 48 344 341 2 65 140 151 133 127 160 179 262 300 277 191 186 179 171 163 161 158 153 152 161 170 174 175 178 180 181 170 160 162 163 161 162 176 194 196 194 196 197
112 117 161 196 224 239 261 208 165 140 160 199 218 247 283 257 222 197 180 164 153 153 154 150 153 158 159 159 162 165 165 158 153 150 152 158 158 157 164 179 178 177 174 174
100 156 212 232 245 227 233 235 203 196 198 198 227 228 248 235 205 186 169 154 144 144 145 150 154 148 139 137 137 136 133 136 139 138 142 149 143 140 141 142 140 139 147 158
92 168 195 261 255 242 250 246 233 224 214 220 237 252 247 200 144 149 157 153 150 151 147 142 134 129 130 130 128 124 122 124 127 129 126 120 116 114 116 120 117 107 96 88
152 153 162 245 272 298 254 228 224 222 209 192 213 231 180 158 156 161 156 150 149 144 134 126 119 114 110 111 115 118 118 113 112 111 109 111 111 106 97 96 91 84 78 78
149 146 164 216 207 235 243 246 228 230 234 219 228 212 173 152 115 93 110 131 130 125 119 113 107 100 92 93 94 95 95 98 101 101 101 101 99 93 86 82 78 75 75 77
141 145 149 166 227 269 284 254 209 224 258 234 211 171 138 127 100 71 73 103 109 108 106 102 100 97 91 89 94 93 87 87 88 88 87 88 93 92 87 85 80 76 81 77
65 102 139 169 222 248 257 276 351 97 272 254 185 171 160 150 145 151 115 105 103 100 98 99 97 94 89 86 92 91 87 84 82 81 80 78 82 88 88 86 82 78 83 82
7 40 185 209 237 263 275 307 84 205 255 300 183 172 165 168 135 126 118 106 103 100 98 99 96 91 88 90 92 88 84 81 83 85 81 75 74 80 83 80 76 82 85 82
212 216 222 199 227 256 309 330 232 247 302 327 122 127 119 115 116 119 116 111 107 103 99 99 96 90 83 87 94 90 83 81 83 81 75 70 64 72 81 82 75 76 85 86
212 203 208 210 234 258 265 252 265 260 259 239 143 133 132 127 126 123 119 114 109 107 104 101 102 94 80 77 92 94 86 86 83 77 71 68 67 63 66 78 82 74 74 85
257 197 215 261 267 273 280 282 283 256 202 137 135 135 133 126 125 122 118 115 113 110 108 106 101 95 85 77 81 89 89 87 85 80 71 68 71 67 61 62 69 80 81 87
245 214 234 256 277 300 302 319 322 83 103 110 113 119 124 124 123 122 118 117 114 109 105 103 102 100 93 85 79 77 82 89 86 80 76 74 74 78 73 67 56 64 58 90
224 213 224 258 278 270 311 346 86 101 105 112 116 112 111 119 122 121 118 116 114 112 109 105 101 100 95 89 82 72 74 89 94 87 80 81 84 83 88 91 74 54 64 66